Weather History for Mora, MN

Change the Weather History Date:

Tuesday, May 21, 2013

  Actual Average Record
Temperature  
Mean Temperature 46 °F -  
Max Temperature 50 °F 72 °F 91 °F (1964)
Min Temperature 41 °F 42 °F 28 °F (1979)
Degree Days  
Heating Degree Days 20    
Moisture  
Dew Point 41 °F    
Average Humidity 89    
Maximum Humidity 100    
Minimum Humidity 76    
Precipitation  
Precipitation 0.39 in - - ()
Sea Level Pressure  
Sea Level Pressure 29.68 in    
Wind  
Wind Speed 6 mph (NE)    
Max Wind Speed 13 mph    
Max Gust Speed 21 mph    
Visibility 9 miles    
Events Rain    
Averages and records for this station are not official NWS values.
T = Trace of Precipitation, MM = Missing Value Source: NWS Daily Summary

Daily Weather History Graph

Daily Weather History Graph

Search for Another Location

Airport:

Trip Planner

Search our weather history database for the weather conditions in past years. The results will help you decide how hot, cold, wet, or windy it might be!

Date:

Astronomy

May. 21, 2013 Rise Set
Actual Time 5:34 AM CDT 8:45 PM CDT
Civil Twilight 4:58 AM CDT 9:21 PM CDT
Nautical Twilight 4:12 AM CDT 10:08 PM CDT
Astronomical Twilight 3:15 AM CDT 11:05 PM CDT
Moon 4:49 PM CDT (5/21) 3:15 AM CDT (5/21)
Length of Visible Light 16h 22m
Length of Day
15h 10m
Waxing Gibbous, 84% of the Moon is Illuminated
May 21
Waxing Gibbous
May 24
Full
May 31
Last Quarter
Jun 8
New
Jun 16
First Quarter

Hourly Weather History & Observations

Time (CDT) Temp. Windchill Dew Point Humidity Pressure Visibility Wind Dir Wind Speed Gust Speed Precip Events Conditions
12:11 AM 42.8 °F - 41.0 °F 93% 29.60 in 7.0 mi Calm Calm - 0.04 in Rain Rain
12:29 AM 42.8 °F 38.6 °F 41.0 °F 93% 29.60 in 10.0 mi ENE 6.9 mph - 0.04 in Rain Light Rain
12:51 AM 42.8 °F 40.1 °F 41.0 °F 93% 29.63 in 10.0 mi ENE 4.6 mph - 0.04 in   Overcast
1:11 AM 42.8 °F 41.1 °F 41.0 °F 93% 29.62 in 10.0 mi ENE 3.5 mph - 0.01 in Rain Light Rain
1:31 AM 42.8 °F 41.1 °F 41.0 °F 93% 29.62 in 7.0 mi ENE 3.5 mph - 0.04 in Rain Heavy Rain
1:51 AM 42.8 °F 38.6 °F 41.0 °F 93% 29.62 in 7.0 mi ENE 6.9 mph - 0.10 in Rain Rain
2:11 AM 42.8 °F 39.3 °F 41.0 °F 93% 29.62 in 10.0 mi ENE 5.8 mph - 0.03 in Rain Rain
2:31 AM 42.8 °F 39.3 °F 41.0 °F 93% 29.62 in 10.0 mi ENE 5.8 mph - 0.05 in Rain Light Rain
2:51 AM 42.8 °F 38.6 °F 41.0 °F 93% 29.60 in 10.0 mi ENE 6.9 mph - 0.07 in Rain Light Rain
3:11 AM 42.8 °F 38.6 °F 41.0 °F 93% 29.60 in 10.0 mi ENE 6.9 mph - 0.01 in Rain Light Rain
3:31 AM 42.8 °F 38.0 °F 41.0 °F 93% 29.60 in 10.0 mi NE 8.1 mph - 0.03 in Rain Light Rain
3:51 AM 42.8 °F 38.6 °F 41.0 °F 93% 29.60 in 10.0 mi NE 6.9 mph - 0.04 in   Drizzle
3:59 AM 42.8 °F 38.6 °F 41.0 °F 93% 29.60 in 10.0 mi NE 6.9 mph - N/A   Light Drizzle
4:31 AM 41.0 °F 37.1 °F 41.0 °F 100% 29.60 in 10.0 mi NE 5.8 mph - N/A   Overcast
4:51 AM 41.0 °F 38.0 °F 39.2 °F 93% 29.61 in 10.0 mi ENE 4.6 mph - N/A   Overcast
5:11 AM 42.8 °F 38.6 °F 41.0 °F 93% 29.62 in 10.0 mi ENE 6.9 mph - N/A   Overcast
5:31 AM 42.8 °F 39.3 °F 41.0 °F 93% 29.62 in 10.0 mi NE 5.8 mph - N/A   Overcast
5:51 AM 42.8 °F 38.0 °F 41.0 °F 93% 29.62 in 10.0 mi ENE 8.1 mph - N/A   Overcast
6:11 AM 42.8 °F 40.1 °F 41.0 °F 93% 29.62 in 10.0 mi ENE 4.6 mph - N/A   Overcast
6:31 AM 42.8 °F 40.1 °F 41.0 °F 93% 29.62 in 10.0 mi ENE 4.6 mph - N/A   Overcast
6:51 AM 42.8 °F 39.3 °F 41.0 °F 93% 29.62 in 10.0 mi NE 5.8 mph - N/A   Overcast
7:11 AM 42.8 °F 38.0 °F 41.0 °F 93% 29.63 in 10.0 mi NE 8.1 mph - N/A   Overcast
7:31 AM 42.8 °F 39.3 °F 41.0 °F 93% 29.63 in 10.0 mi ENE 5.8 mph - N/A   Overcast
7:51 AM 42.8 °F 38.0 °F 41.0 °F 93% 29.63 in 10.0 mi ENE 8.1 mph - N/A   Overcast
8:11 AM 42.8 °F 38.6 °F 41.0 °F 93% 29.63 in 10.0 mi NE 6.9 mph - N/A   Overcast
8:31 AM 42.8 °F 41.1 °F 41.0 °F 93% 29.64 in 10.0 mi NE 3.5 mph - N/A   Overcast
8:51 AM 42.8 °F 39.3 °F 41.0 °F 93% 29.65 in 10.0 mi NE 5.8 mph - N/A   Overcast
9:11 AM 42.8 °F - 41.0 °F 93% 29.65 in 10.0 mi Calm Calm - N/A   Overcast
9:31 AM 44.6 °F - 42.8 °F 93% 29.65 in 10.0 mi Calm Calm - N/A   Overcast
9:51 AM 44.6 °F 41.4 °F 42.8 °F 93% 29.66 in 10.0 mi ENE 5.8 mph - N/A   Overcast
10:11 AM 44.6 °F 40.7 °F 42.8 °F 93% 29.66 in 10.0 mi NE 6.9 mph - N/A   Overcast
10:30 AM 44.6 °F 40.7 °F 42.8 °F 93% 29.67 in 10.0 mi NE 6.9 mph - N/A   Overcast
10:51 AM 44.6 °F 41.4 °F 41.0 °F 87% 29.66 in 10.0 mi NE 5.8 mph - N/A   Overcast
11:11 AM 44.6 °F 39.7 °F 41.0 °F 87% 29.66 in 10.0 mi NE 9.2 mph - N/A   Overcast
11:31 AM 44.6 °F 38.8 °F 41.0 °F 87% 29.67 in 10.0 mi NE 11.5 mph 18.4 mph N/A   Overcast
11:51 AM 46.4 °F 41.9 °F 41.0 °F 81% 29.66 in 10.0 mi NE 9.2 mph - N/A   Overcast
12:11 PM 48.2 °F - 42.8 °F 82% 29.67 in 10.0 mi NE 6.9 mph - N/A   Overcast
12:31 PM 48.2 °F - 42.8 °F 82% 29.67 in 10.0 mi NE 5.8 mph 16.1 mph N/A   Overcast
12:51 PM 50.0 °F - 42.8 °F 76% 29.66 in 10.0 mi NE 6.9 mph - N/A   Overcast
1:11 PM 50.0 °F - 44.6 °F 82% 29.67 in 10.0 mi NE 8.1 mph - N/A   Overcast
1:31 PM 48.2 °F - 42.8 °F 82% 29.67 in 10.0 mi NNE 6.9 mph - N/A   Overcast
1:51 PM 48.2 °F - 41.0 °F 76% 29.67 in 10.0 mi NE 9.2 mph - N/A   Overcast
2:11 PM 48.2 °F - 41.0 °F 76% 29.67 in 10.0 mi NE 8.1 mph 17.3 mph N/A   Light Drizzle
2:31 PM 46.4 °F 40.7 °F 41.0 °F 81% 29.68 in 10.0 mi NE 12.7 mph 20.7 mph N/A   Light Drizzle
2:51 PM 48.2 °F - 42.8 °F 82% 29.69 in 10.0 mi NNE 9.2 mph 19.6 mph N/A   Overcast
3:11 PM 48.2 °F - 42.8 °F 82% 29.69 in 10.0 mi NE 5.8 mph - N/A   Overcast
3:31 PM 48.2 °F - 41.0 °F 76% 29.70 in 10.0 mi NE 12.7 mph 20.7 mph N/A   Overcast
3:51 PM 48.2 °F - 41.0 °F 76% 29.70 in 10.0 mi NE 10.4 mph - N/A   Overcast
4:11 PM 48.2 °F - 41.0 °F 76% 29.70 in 10.0 mi NE 9.2 mph 19.6 mph N/A   Overcast
4:31 PM 44.6 °F 39.2 °F 41.0 °F 87% 29.70 in 7.0 mi NE 10.4 mph 17.3 mph N/A   Drizzle
4:51 PM 44.6 °F 40.2 °F 41.0 °F 87% 29.71 in 3.0 mi NE 8.1 mph 20.7 mph 0.01 in Rain Light Rain
5:11 PM 44.6 °F 40.2 °F 41.0 °F 87% 29.72 in 4.0 mi NE 8.1 mph - 0.02 in Rain Rain
5:31 PM 44.6 °F 42.2 °F 41.0 °F 87% 29.73 in 4.0 mi ENE 4.6 mph - 0.04 in Rain Heavy Rain
5:51 PM 44.6 °F - 42.8 °F 93% 29.74 in 5.0 mi Calm Calm - 0.07 in Rain Rain
6:11 PM 44.6 °F 43.1 °F 42.8 °F 93% 29.75 in 5.0 mi East 3.5 mph - 0.01 in Rain Light Rain
6:31 PM 44.6 °F 40.7 °F 42.8 °F 93% 29.74 in 5.0 mi NE 6.9 mph - 0.03 in Rain Light Rain
6:51 PM 44.6 °F 43.1 °F 41.0 °F 87% 29.74 in 7.0 mi NE 3.5 mph - 0.04 in Rain Heavy Rain
7:11 PM 44.6 °F - 41.0 °F 87% 29.75 in 7.0 mi Calm Calm - 0.01 in   Heavy Drizzle
7:31 PM 44.6 °F 41.4 °F 41.0 °F 87% 29.74 in 10.0 mi NE 5.8 mph - 0.01 in   Drizzle
7:51 PM 44.6 °F 41.4 °F 42.8 °F 93% 29.74 in 10.0 mi NE 5.8 mph - 0.01 in   Light Drizzle
8:11 PM 44.6 °F 40.2 °F 41.0 °F 87% 29.75 in 10.0 mi NE 8.1 mph - N/A   Light Drizzle
8:31 PM 44.6 °F 41.4 °F 42.8 °F 93% 29.75 in 10.0 mi NE 5.8 mph - N/A   Overcast
8:51 PM 44.6 °F 39.7 °F 42.8 °F 93% 29.76 in 10.0 mi NE 9.2 mph 16.1 mph N/A   Overcast
9:11 PM 44.6 °F 40.7 °F 42.8 °F 93% 29.76 in 10.0 mi NE 6.9 mph - N/A   Overcast
9:31 PM 44.6 °F 40.2 °F 41.0 °F 87% 29.77 in 10.0 mi ENE 8.1 mph - N/A   Light Drizzle
9:51 PM 44.6 °F 40.2 °F 41.0 °F 87% 29.77 in 10.0 mi ENE 8.1 mph 18.4 mph N/A   Light Drizzle
10:11 PM 44.6 °F 40.2 °F 41.0 °F 87% 29.77 in 10.0 mi NE 8.1 mph - N/A   Overcast
10:31 PM 42.8 °F 38.0 °F 39.2 °F 87% 29.77 in 10.0 mi ENE 8.1 mph 18.4 mph N/A Rain Light Rain
10:51 PM 42.8 °F 39.3 °F 39.2 °F 87% 29.78 in 10.0 mi NE 5.8 mph - N/A   Overcast
11:11 PM 42.8 °F 38.6 °F 39.2 °F 87% 29.78 in 5.0 mi NNE 6.9 mph - N/A Rain Heavy Rain
11:31 PM 41.0 °F 37.1 °F 37.4 °F 87% 29.77 in 5.0 mi NE 5.8 mph - 0.01 in   Drizzle
11:51 PM 41.0 °F 37.1 °F 37.4 °F 87% 29.76 in 10.0 mi NE 5.8 mph - 0.01 in   Light Drizzle